Hourly Data Report for October 31, 2016

All times are specified in Local Standard Time (LST). Add 1 hour to adjust for Daylight Saving Time where and when it is observed.

RESOLUTE BAY A
NUNAVUT

74°43'01.000" N
94°58'10.000" W
67.70 m
2403498
71924
YRB

Download Data

Hourly Data (October 2016)
Hourly Data Report for October 31, 2016
Temp Definition
°C
Dew Point Temp Definition
°C
Rel Hum Definition
%
Wind Dir Definition
10's deg

Wind Spd Definition
km/h
Visibility Definition
km
Stn Press Definition
kPa
Hmdx Definition


Wind Chill Definition


Weather Definition


TIME
00:00 Legend Double Dagger -20.4 -24.1 73 35 21 24.1 100.79   -31 Ice Crystals
01:00 Legend Double Dagger -19.6 -23.0 75 33 16 24.1 100.78   -29 Ice Crystals
02:00 Legend Double Dagger -19.1 -22.3 76 35 19 24.1 100.74   -29 LegendNANA
03:00 Legend Double Dagger -18.5 -21.8 76 35 15 16.1 100.69   -27 Snow
04:00 Legend Double Dagger -18.5 -21.8 76 35 19 16.1 100.61   -28 Snow
05:00 Legend Double Dagger -18.6 -22.0 75 2 28 24.1 100.55   -30 Snow,Blowing Snow
06:00 Legend Double Dagger -19.2 -22.7 74 3 34 16.1 100.49   -32 Snow,Blowing Snow
07:00 Legend Double Dagger -19.2 -22.7 74 4 35 24.1 100.45   -32 Snow
08:00 Legend Double Dagger -18.2 -21.6 75 4 31 19.3 100.35   -30 Snow
09:00 Legend Double Dagger -18.4 -21.8 75 5 35 19.3 100.31   -31 Snow,Fog
10:00 Legend Double Dagger -18.2 -21.6 75 5 24 24.1 100.25   -29 Snow,Fog
11:00 Legend Double Dagger -18.3 -21.7 75 4 37 24.1 100.19   -31 Snow,Fog,Blowing Snow
12:00 Legend Double Dagger -19.0 -22.5 74 4 41 22.5 100.10   -33 Snow,Blowing Snow
13:00 Legend Double Dagger -20.1 -23.5 75 4 48 24.1 100.04   -35 Snow,Blowing Snow
14:00 Legend Double Dagger -19.9 -23.3 75 4 41 24.1 99.99   -34 Snow,Blowing Snow
15:00 Legend Double Dagger -19.7 -23.2 74 4 32 24.1 99.94   -33 Blowing Snow
16:00 Legend Double Dagger -19.7 -23.1 75 4 39 24.1 99.88   -34 Blowing Snow
17:00 Legend Double Dagger -19.2 -22.7 74 4 40 24.1 99.79   -33 Blowing Snow
18:00 Legend Double Dagger -17.1 -20.5 75 4 35 24.1 99.73   -30 Ice Crystals
19:00 Legend Double Dagger -16.8 -20.6 73 2 22 24.1 99.67   -27 Ice Crystals,Blowing Snow
20:00 Legend Double Dagger -15.3 -18.3 78 4 25 24.1 99.57   -26 Ice Crystals,Blowing Snow
21:00 Legend Double Dagger -14.9 -17.8 79 4 43 24.1 99.46   -28 Ice Crystals,Blowing Snow
22:00 Legend Double Dagger -14.4 -17.3 79 4 46 24.1 99.39   -27 Ice Crystals,Blowing Snow
23:00 Legend Double Dagger -13.6 -16.5 79 5 36 24.1 99.33   -25 Ice Crystals,Blowing Snow

Notes on Data Quality.

Legend

  • E = Estimated
  • M = Missing
  • NA = Not Available
  • ‡ = Partner data that is not subject to review by the National Climate Archives
Date modified: